Home   Weather   Balurghat   Past weeks

Flag for India Past Weather in Balurghat, West Bengal, India — Yesterday and Last 2 Weeks

Now
86 °F

Fog.


Feels Like: 105 °F
Forecast: 79 / 90 °F
Wind: 6 mph from East

Location: Lucknow / Amausi

Current Time: Aug 19, 2017 at 9:21:37 am

Latest Report: Aug 19, 2017 at 8:30 am


Visibility: 2 mi

Pressure: 29.68 "Hg

Humidity: 89%

Dew Point: 82 °F

Location of BalurghatLocation

Past Weather in Balurghat — Graph

°F

Balurghat Temperature Yesterday

Maximum temperature yesterday: 93 °F (at 12:30 pm)
Minimum temperature yesterday: 81 °F (at 2:00 pm)
Average temperature yesterday: 86 °F

High & Low Weather Summary for the Past Weeks

 TemperatureHumidityPressure
High99 °F (Aug 17, 3:00 pm)100% (Aug 5, 7:30 am)29.74 "Hg (Aug 5, 7:30 am)
Low81 °F (Aug 7, 6:00 am)57% (Aug 17, 3:00 pm)29.42 "Hg (Aug 4, 5:00 pm)
Average87 °F88%29.55 "Hg
* Reported Aug 4 8:00 am — Aug 19 8:00 am, Balurghat. Weather by CustomWeather, © 2017

Note: Actual official high and low records may vary slightly from our data, if they occured in-between our weather recording intervals... More about our weather records

Advertising

Balurghat Weather History for the Previous 24 Hours

Scroll right to see more
 ConditionsComfort  
Time TempWeatherWind HumidityBarometerVisibility
8:00 am
Sat, Aug 19
86 °FFog.6 mph89%29.65 "Hg2 mi
7:30 am84 °FFog.3 mph94%29.62 "Hg2 mi
7:00 am84 °FFog.6 mph94%29.62 "Hg2 mi
6:30 am84 °FFog.3 mph94%29.62 "Hg2 mi
6:00 am84 °FFog.3 mph94%29.62 "Hg2 mi
5:30 am84 °FFog.3 mph94%29.59 "Hg2 mi
4:00 am84 °FFog.5 mph94%29.59 "Hg2 mi
3:00 am84 °FFog.7 mph94%29.59 "Hg2 mi
2:00 am84 °FFog.6 mph94%29.59 "Hg2 mi
1:00 am84 °FFog.3 mph94%29.59 "Hg2 mi
12:00 am84 °FFog.3 mph94%29.62 "Hg2 mi
11:00 pm
Fri, Aug 18
84 °FFog.3 mph94%29.62 "Hg2 mi
10:00 pm84 °FFog.2 mph94%29.59 "Hg2 mi
9:00 pm84 °FFog.2 mph94%29.59 "Hg2 mi
8:30 pm84 °FFog.2 mph94%29.56 "Hg2 mi
8:00 pm84 °FFog.2 mph89%29.56 "Hg2 mi
7:30 pm84 °FFog.2 mph89%29.56 "Hg2 mi
7:00 pm84 °FFog.2 mph94%29.53 "Hg2 mi
6:00 pm84 °FFog.2 mph89%29.53 "Hg2 mi
5:30 pm86 °FFog.3 mph84%29.50 "Hg2 mi
5:00 pm86 °FFog.3 mph89%29.50 "Hg2 mi
4:30 pm88 °FFog.3 mph89%29.50 "Hg2 mi
4:00 pm88 °FFog.2 mph89%29.50 "Hg2 mi
3:30 pm88 °FFog.2 mph89%29.53 "Hg2 mi
3:00 pm84 °FFog.2 mph94%29.50 "Hg2 mi
2:30 pm82 °FLight rain. More clouds than sun.2 mph94%29.53 "Hg2 mi
2:00 pm81 °FLight rain. More clouds than sun.3 mph100%29.56 "Hg2 mi
1:30 pm86 °FDrizzle. More clouds than sun.12 mph89%29.56 "Hg2 mi
1:00 pm90 °FMore clouds than sun.14 mph79%29.56 "Hg2 mi
12:30 pm93 °FBroken clouds.5 mph75%29.59 "Hg2 mi
12:00 pm91 °FBroken clouds.3 mph80%29.56 "Hg2 mi
11:30 am90 °FFog.5 mph89%29.59 "Hg2 mi
11:00 am90 °FFog.5 mph79%29.59 "Hg2 mi
10:30 am90 °FFog.5 mph84%29.59 "Hg2 mi
10:00 am88 °FFog.3 mph89%29.59 "Hg2 mi
9:30 am86 °FFog.2 mph94%29.59 "Hg2 mi
9:00 am86 °FFog.3 mph94%29.59 "Hg2 mi
Weather by CustomWeather, © 2017

See weather overviewHow to use our weather pages